This demonstration page uses our WeatherBlox Daily Observations layout. Learn more.

Left ArrowRight Arrow

39.29038, -76.61219

Hourly Observations for May 16, 2021

Temp ( °F °C ) Dew Point ( °F °C ) Humidity (%) Winds ( mph kmh ) Pressure ( in mb ) Visibility ( mi km ) Precip ( " mm )
12:54 am 00:54 Partly Cloudy 58 14.4 47 8.3 67 67 N N/A 30.24 1024 10 16 N/A
1:54 am 01:54 Mostly Cloudy 54 12.2 45 7.2 72 72 N N/A 30.23 1024 10 16 N/A
2:54 am 02:54 Partly Cloudy 54 12.2 46 7.8 75 75 N N/A 30.23 1024 10 16 N/A
3:54 am 03:54 Partly Cloudy 53 11.7 45 7.2 74 74 N N/A 30.23 1024 10 16 N/A
4:54 am 04:54 Mostly Clear 49 9.4 45 7.2 86 86 N N/A 30.24 1024 10 16 N/A
5:54 am 05:54 Mostly Cloudy 49 9.4 45 7.2 86 86 N N/A 30.24 1024 10 16 N/A
6:54 am 06:54 Mostly Cloudy 53 11.7 46 7.8 77 77 N N/A 30.26 1025 10 16 N/A
7:54 am 07:54 Cloudy 54 12.2 47 8.3 77 77 N N/A 30.27 1025 10 16 N/A
8:54 am 08:54 Cloudy 58 14.4 46 7.8 65 65 N N/A 30.28 1025 10 16 N/A
9:54 am 09:54 Cloudy 59 15 44 6.7 58 58 SW 3 6 30.29 1026 10 16 N/A
10:54 am 10:54 Partly Cloudy 68 20 45 7.2 44 44 VRB 3 6 30.28 1026 10 16 N/A
11:54 am 11:54 Partly Cloudy 74 23.3 43 6.1 33 33 VRB 6 9 30.27 1025 10 16 N/A
12:54 pm 12:54 Partly Cloudy 76 24.4 42 5.6 30 30 SE 7 11 30.25 1024 10 16 N/A
1:54 pm 13:54 Mostly Cloudy 74 23.3 42 5.6 32 32 SW 6 9 30.24 1024 10 16 N/A
2:54 pm 14:54 Cloudy 73 22.8 41 5 32 32 VRB 5 7 30.22 1023 10 16 N/A
3:11 pm 15:11 Mostly Cloudy with Thunderstorms 73 22.8 42 5.6 33 33 VRB 3 6 30.21 1023 10 16 N/A
3:45 pm 15:45 Cloudy with Thunderstorms 64 17.8 47 8.3 54 54 SW 10 17 30.25 1024 2 3 0.07 1.78
3:54 pm 15:54 Cloudy with Thunderstorms 61 16.1 49 9.4 65 65 NW 10 17 30.25 1024 2 3 0.10 2.54
4:08 pm 16:08 Windy with Storms Likely 59 15 50 10 72 72 W 20 31 30.25 1024 10 16 0.01 0.25
4:18 pm 16:18 Cloudy with Light Rain 58 14.4 50 10 75 75 WNW 16 26 30.25 1024 6 10 0.01 0.25
4:54 pm 16:54 Cloudy with Light Rain 59 15 49 9.4 69 69 W 23 37 30.24 1024 7 11 0.02 0.51
5:54 pm 17:54 Cloudy with Light Rain 58 14.4 51 10.6 78 78 SE 5 7 30.27 1025 10 16 0.01 0.25
6:54 pm 18:54 Cloudy 57 13.9 53 11.7 87 87 NW 9 15 30.24 1024 10 16 0.01 0.25
7:54 pm 19:54 Cloudy 58 14.4 51 10.6 78 78 VRB 3 6 30.24 1024 10 16 N/A
8:54 pm 20:54 Cloudy 57 13.9 53 11.7 87 87 S 6 9 30.25 1024 10 16 N/A
9:54 pm 21:54 Cloudy 57 13.9 52 11.1 83 83 N N/A 30.27 1025 10 16 N/A
10:54 pm 22:54 Cloudy 58 14.4 53 11.7 84 84 N N/A 30.26 1025 10 16 N/A
11:54 pm 23:54 Mostly Cloudy 55 12.8 53 11.7 93 93 N N/A 30.27 1025 10 16 N/A

Powered by AerisWeather